sat.trackr.live / text

‹ back to catalog

STARLINK-34410

NORAD 64440 · 2025-130C

PAYLOAD ACTIVE UNKNOWN

§ Identity

Operator
Country
US
Launch date
2025-06-18
Launch site
AFETR
Launch vehicle
Mass (kg)
RCS (m²)

Purposes: comms

External: N2YO · Heavens-Above · Gunter

§ Orbital elements

Epoch: 2026-09-20T06:46:20.303616Z

Period
93.85 min
Inclination
53.1568°
Eccentricity
0.0001071
Mean motion
15.34424291 rev/d
Perigee alt
461.9 km
Apogee alt
463.4 km
Semi-major
6,840.8 km
B*
4.0979e-4
RAAN
262.7237°
Arg perigee
79.8779°
Mean anomaly
280.2344°
Rev number
7,052

§ Raw data

STARLINK-344101 64440U 25130C   26263.28217944  .00013505  00000+0  40979-3 0  99902 64440  53.1568 262.7237 0001071  79.8779 280.2344 15.34424291 70525

JSON: /api/v1/satellites/64440 · /tle

For live sub-satellite position, see the globe view (requires WebGL).

§ Visibility from observer

Set your observer location to see the next 7 days of passes ≥ 10°. The values pass through the URL so the page stays shareable.

No JS? Fill the form by hand. The geolocation button needs JavaScript.